Wind_Speed
20 20 21 21 21 21 22 22 22 22 22 22 22 22 23 23 23 23 24 24 23 22 21 20 19 19 18 17 18 19 19 20 19 19 28 28 20 17 16 16 15 11 12 17 15 13 17 19 21 21 20 20 18 17 16 16 15 11 7 5 5 4 3 6 5 1 7 7 1 2 3 6 7 8 10 11 13 13 12 13 10 15 21 23 28 32 33 32
22 22 22 22 23 23 23 23 24 24 24 24 24 24 24 23 23 23 23 23 23 22 21 19 18 17 17 16 17 18 19 20 21 26 34 28 21 18 13 14 17 14 13 17 18 18 20 20 21 21 21 19 17 17 15 15 15 11 6 5 4 5 5 7 7 2 6 8 3 4 6 4 4 8 8 8 11 12 12 12 14 20 25 28 31 32 32 33
23 23 23 23 24 24 24 25 25 25 25 25 26 26 26 25 24 23 22 23 23 22 21 19 18 16 15 15 15 16 18 19 23 31 32 26 24 21 13 12 14 14 15 17 19 20 19 19 19 21 21 18 17 17 15 13 14 12 8 5 4 6 6 8 12 7 11 13 9 7 10 6 4 6 7 7 10 10 11 11 15 21 26 30 32 32 32 32
24 24 24 24 24 25 25 25 25 25 26 26 27 27 27 27 25 24 22 22 22 22 20 19 17 15 13 13 13 13 15 17 17 19 18 16 20 22 20 17 15 15 15 15 19 20 19 18 18 21 20 16 17 18 15 13 12 10 10 7 6 9 5 9 14 12 18 18 9 7 9 6 7 7 5 9 9 6 9 14 15 20 28 31 32 32 32 31
25 25 25 25 25 26 26 26 26 26 26 26 27 27 28 27 27 25 23 22 22 21 20 18 17 15 13 12 11 9 10 9 3 3 6 9 12 18 22 22 21 20 17 16 19 20 20 20 19 21 18 14 15 15 15 17 14 8 11 9 8 12 6 8 9 13 25 19 6 7 8 6 9 9 6 9 7 4 8 15 17 22 30 32 32 32 31 31
25 25 25 25 25 26 27 27 27 27 27 27 27 28 28 28 27 25 24 23 21 20 19 18 15 13 13 11 10 7 6 5 3 5 3 3 6 12 17 20 21 21 20 19 21 22 22 23 21 21 17 13 14 14 14 18 16 9 11 10 11 14 8 8 7 14 27 16 5 4 11 11 7 8 10 10 9 11 11 16 21 23 30 32 32 32 31 32
25 25 26 26 26 26 27 27 27 27 27 27 28 28 28 28 27 25 24 23 22 20 18 18 15 12 12 10 10 9 13 17 9 3 5 3 2 7 12 18 21 22 23 22 23 24 23 24 23 21 16 12 14 16 15 17 17 12 10 11 11 14 13 14 10 11 21 11 5 1 6 9 6 6 10 10 10 16 14 18 25 25 29 30 30 31 30 31
26 26 26 27 27 27 27 27 27 28 27 28 28 28 29 28 26 25 23 23 22 20 17 16 13 11 10 9 10 10 21 27 16 11 13 10 7 5 5 13 22 25 26 26 25 25 24 25 24 21 15 13 15 16 17 16 15 14 13 13 12 12 15 18 12 7 17 12 6 5 4 5 7 7 7 10 12 18 18 20 26 26 28 29 29 29 29 29
27 27 27 28 28 28 28 28 28 28 28 28 28 28 29 28 26 24 22 22 20 19 17 15 12 10 10 11 10 11 22 23 15 16 16 12 12 11 7 8 22 29 27 27 26 25 24 23 25 22 15 15 17 16 18 15 11 14 16 15 14 15 13 15 15 13 19 15 7 8 8 7 7 7 6 12 14 18 21 22 25 26 27 28 28 28 28 28
28 28 28 28 29 29 28 29 29 29 29 28 28 28 28 28 26 23 21 20 19 17 16 14 11 10 10 10 10 11 16 12 11 17 16 13 15 14 10 8 21 31 26 25 26 26 25 22 22 23 18 16 17 16 18 15 12 14 16 16 15 18 16 13 14 16 18 14 10 10 9 8 9 8 5 12 17 18 22 23 25 26 26 28 27 27 27 27
28 28 28 29 29 29 29 29 29 29 29 29 29 28 28 27 25 22 20 19 18 16 15 13 10 10 10 9 14 13 8 3 5 11 12 13 15 17 14 11 20 28 24 24 25 25 25 21 20 20 16 15 16 17 18 19 16 15 17 16 16 19 18 15 14 14 14 12 13 13 10 8 8 8 6 12 19 20 22 23 24 25 26 27 26 27 27 27
29 29 29 29 29 29 29 29 29 29 29 30 29 28 28 27 24 22 19 18 17 16 15 12 9 11 8 12 24 21 8 4 5 8 11 13 15 17 16 14 18 23 22 22 23 24 23 22 21 19 16 14 14 13 14 20 20 17 17 14 13 14 14 16 15 14 13 11 14 13 9 9 10 9 7 12 20 20 22 23 22 23 25 26 26 28 29 28
29 29 29 29 29 29 29 29 29 29 29 29 29 29 28 25 22 20 18 17 17 16 15 12 10 11 8 15 26 19 8 9 10 10 10 12 15 16 17 17 18 20 22 21 20 21 22 21 22 22 20 16 13 12 10 12 16 16 14 11 11 11 11 15 16 17 15 12 13 11 7 8 9 12 11 13 19 20 21 21 20 22 23 24 26 27 28 28
29 29 29 29 29 29 29 29 29 29 29 29 29 29 26 24 21 19 18 17 16 15 13 10 9 7 10 19 24 14 10 14 16 18 14 12 16 18 20 20 18 19 20 21 20 19 21 21 22 22 22 20 17 17 14 9 10 12 12 10 9 9 9 13 16 17 16 14 17 13 6 6 9 13 15 16 20 20 19 20 20 21 21 23 24 26 27 28
29 29 29 29 29 28 29 29 29 29 29 29 29 28 25 22 19 17 17 17 15 13 10 7 6 5 11 23 24 13 14 19 20 23 20 16 17 19 23 23 21 21 20 20 20 19 20 21 23 21 19 21 20 16 12 10 9 9 10 10 10 9 10 13 15 16 15 14 19 15 6 7 9 12 19 18 21 20 17 18 19 18 19 21 23 24 25 26
29 30 30 29 29 28 29 29 29 30 29 29 30 26 21 20 19 17 18 16 13 11 6 3 4 4 9 15 14 9 16 23 22 20 22 21 19 19 22 24 23 22 21 20 20 19 19 20 23 22 19 17 15 13 9 9 10 9 10 9 10 12 10 11 13 18 18 14 16 15 8 8 7 13 21 20 20 18 17 18 18 17 18 20 22 23 23 24
30 30 30 30 29 28 29 28 29 29 29 30 29 24 18 17 20 19 14 10 8 6 5 3 3 7 14 12 8 10 16 23 21 18 22 22 20 19 19 23 23 22 22 20 20 20 19 20 19 17 17 14 11 11 10 10 10 9 10 10 11 14 11 10 11 14 19 15 15 15 12 10 6 14 16 20 20 15 17 17 17 16 16 18 20 21 22 24
31 31 31 30 29 28 28 28 28 28 28 29 27 22 17 19 23 17 8 8 8 4 5 6 5 7 13 16 14 13 12 17 21 19 21 21 20 20 19 21 21 21 22 19 21 22 19 18 16 11 12 13 12 12 12 13 12 10 11 10 11 14 13 12 11 11 16 17 15 14 13 12 8 14 14 20 20 15 16 17 18 18 17 17 20 21 22 24
31 31 31 31 29 28 27 27 27 25 26 25 26 22 17 23 23 10 6 7 7 5 7 7 14 8 9 12 15 14 9 10 19 19 21 22 21 20 18 19 20 22 21 15 17 22 17 13 13 12 12 14 16 16 16 16 14 13 14 12 11 12 12 14 14 12 14 15 15 14 13 13 12 14 16 19 18 15 16 17 17 20 20 18 18 20 22 23
31 31 31 31 30 28 27 27 25 23 23 22 27 24 18 23 17 5 9 16 18 17 22 19 20 22 23 22 15 10 7 7 16 20 22 24 22 21 18 19 21 21 18 13 14 20 17 11 12 15 15 17 19 20 20 19 18 17 15 14 14 13 11 14 15 13 13 11 13 17 15 15 15 14 18 19 19 17 18 17 17 18 20 20 18 19 21 22
31 31 31 31 30 27 26 26 22 22 22 20 23 21 17 20 13 10 21 28 27 23 29 33 30 30 32 31 24 12 8 9 16 20 22 25 24 20 19 20 18 14 16 16 14 17 17 13 16 19 18 19 20 21 21 20 20 20 16 13 14 13 12 15 16 13 15 12 12 18 17 16 17 13 18 22 19 18 22 21 19 21 21 22 21 19 19 20
30 30 30 30 29 27 25 23 19 20 22 19 17 16 15 17 12 13 20 24 32 31 27 31 34 35 35 35 34 25 17 14 17 20 23 27 27 21 19 20 16 12 16 17 13 13 14 15 19 21 18 19 19 19 22 22 20 17 15 14 12 11 11 13 17 15 15 11 11 16 16 15 18 15 16 21 19 18 28 30 25 27 25 23 23 20 18 19
29 29 29 29 28 27 23 18 18 20 20 17 14 15 16 17 15 16 17 17 29 35 28 28 32 34 35 34 32 28 21 17 17 21 26 28 29 26 20 17 16 15 16 17 15 13 12 15 19 20 18 20 21 20 22 20 17 15 14 13 12 12 12 10 14 16 14 10 10 14 13 12 15 15 15 18 22 19 27 36 31 29 30 27 27 25 24 24
29 28 28 28 27 26 21 14 17 19 16 13 12 15 18 19 17 18 20 16 18 26 30 32 32 32 34 31 28 27 24 20 18 21 28 29 30 27 20 18 18 16 16 20 22 18 15 13 17 21 20 21 22 21 21 16 13 16 17 15 13 15 16 11 12 15 15 13 12 12 10 9 11 13 13 13 21 19 23 36 32 29 32 30 27 27 28 29
29 28 27 27 26 26 19 10 14 17 13 11 13 17 20 20 18 18 18 13 11 17 23 22 25 29 31 26 23 26 23 22 23 22 27 33 31 23 18 19 17 15 18 23 22 19 17 16 17 21 21 22 21 19 20 16 12 15 18 20 19 18 17 15 15 13 11 12 15 14 11 8 11 14 15 11 15 15 18 30 27 28 32 30 29 29 29 28
28 27 27 25 24 26 20 10 13 16 13 13 16 21 22 19 19 20 13 8 8 11 11 11 14 17 21 23 23 24 18 20 27 25 25 32 33 24 17 16 14 15 19 19 15 11 13 18 18 19 21 23 21 18 20 19 12 11 16 20 22 21 19 17 18 13 9 10 14 17 13 7 10 14 16 16 14 14 17 26 25 29 33 31 30 30 30 29
28 27 27 23 21 22 20 14 14 15 14 16 20 22 22 19 20 20 10 6 6 3 5 7 8 7 12 20 25 21 10 11 24 30 28 29 34 29 19 15 13 14 15 12 10 10 14 21 20 19 20 19 18 16 18 20 14 10 13 18 21 22 20 18 17 13 10 10 11 17 15 10 10 12 14 18 16 14 15 23 24 28 34 34 33 32 32 30
28 27 26 23 19 16 17 16 14 14 15 18 23 23 21 21 21 15 7 5 3 4 6 4 3 2 5 16 27 24 10 6 15 27 32 29 32 30 20 18 17 16 17 14 12 12 15 21 22 21 19 14 15 16 18 20 16 12 14 16 17 20 21 19 15 11 11 11 10 14 16 12 10 9 12 17 18 16 15 18 19 25 33 33 32 32 32 30
27 26 25 23 19 14 15 16 13 14 18 21 23 22 22 22 18 9 5 6 5 2 3 2 4 3 4 10 21 23 16 10 7 19 33 31 31 29 18 20 20 17 21 19 14 13 14 19 22 20 17 13 15 17 19 19 15 14 16 15 14 17 19 17 14 11 11 11 11 15 15 10 8 9 11 14 16 17 17 18 15 24 33 33 31 32 31 30
25 24 24 23 19 15 13 12 12 15 20 22 22 23 23 19 11 6 6 6 4 7 6 2 4 3 8 9 13 18 17 17 14 15 31 30 32 31 21 22 22 15 17 20 18 16 15 19 20 18 15 13 15 17 18 19 17 15 15 14 11 11 12 12 11 10 10 11 14 18 17 12 8 8 9 10 13 14 15 16 15 24 30 32 32 32 33 32
24 23 22 19 17 16 13 11 15 19 20 22 22 23 20 11 6 7 5 5 6 10 10 4 9 8 5 7 9 15 16 17 18 14 20 21 24 25 18 17 17 13 13 15 17 18 19 17 15 16 19 17 15 16 16 18 19 15 12 11 9 8 8 8 9 10 11 12 13 18 19 15 11 9 10 11 12 13 14 11 17 22 24 30 32 32 33 34
22 21 18 15 16 17 13 14 20 23 21 21 21 19 13 6 5 7 7 9 6 8 12 12 16 17 14 13 10 11 12 13 16 15 14 15 15 17 16 13 11 12 13 13 14 15 18 18 14 16 22 22 16 13 14 16 17 14 11 11 10 8 8 8 8 9 11 10 10 16 18 15 12 10 12 15 12 14 16 12 17 22 24 32 35 34 34 33
22 20 14 13 16 14 12 16 21 22 20 20 18 13 8 6 6 7 11 10 6 11 14 16 19 19 17 14 11 11 11 11 15 15 14 17 15 15 20 20 17 15 12 12 13 12 13 16 20 18 17 21 19 12 11 13 14 14 12 11 10 9 8 9 9 8 10 9 11 16 15 13 12 10 15 19 15 13 17 20 24 29 31 34 37 36 35 35
22 17 11 13 16 11 11 18 21 20 19 18 14 9 7 8 7 10 12 9 9 14 15 17 20 21 17 12 10 11 11 10 14 15 12 14 15 13 17 22 24 18 11 11 11 12 13 13 19 19 13 17 21 16 13 13 13 14 13 11 11 9 8 9 8 9 9 8 12 15 12 12 11 8 13 18 18 17 16 21 26 33 37 36 38 37 34 35
21 14 10 13 12 9 13 18 18 17 17 15 10 7 7 8 8 9 9 9 11 13 16 19 17 16 14 11 12 14 12 10 13 16 13 13 14 13 14 18 23 20 12 12 9 11 16 12 15 21 16 18 21 18 15 14 12 12 12 12 12 11 9 7 8 10 10 7 9 11 10 10 9 8 12 16 19 21 18 19 20 27 37 36 36 37 34 34
18 11 10 11 9 9 15 19 17 15 15 12 7 6 7 8 8 7 10 15 14 14 17 16 11 11 11 9 9 12 11 11 13 13 13 15 15 16 16 13 20 23 16 12 8 9 13 11 14 22 21 20 21 19 19 16 10 10 12 13 12 13 11 7 8 10 11 10 8 8 9 9 9 9 13 15 16 19 20 20 17 20 36 36 33 36 34 35
17 13 13 10 8 11 17 18 15 13 12 9 5 6 8 10 12 13 14 17 18 17 15 11 8 9 10 8 9 11 14 12 13 11 9 14 14 16 19 15 18 24 22 16 11 9 11 10 14 22 24 22 21 21 22 20 13 9 11 13 11 12 12 7 7 7 9 9 7 10 13 11 9 8 10 15 16 15 18 20 19 18 29 33 32 35 35 36
19 20 18 9 7 14 17 15 14 13 12 7 6 7 7 9 14 15 15 15 17 17 13 8 8 10 11 10 11 15 19 14 8 8 8 11 8 5 10 12 14 21 27 25 15 10 11 9 13 21 23 20 19 18 18 20 21 14 10 13 11 10 10 8 7 7 8 8 6 10 13 10 10 9 10 15 16 15 15 18 20 18 21 29 31 35 36 36
19 21 13 5 9 15 15 14 15 13 10 6 6 6 5 8 11 14 15 15 14 14 11 10 10 11 12 12 13 14 15 15 12 9 6 6 3 6 10 6 6 7 12 19 15 12 12 9 9 18 23 20 15 14 14 15 20 18 12 12 11 9 9 9 8 7 7 7 6 8 8 7 8 9 12 14 14 14 14 13 17 15 20 29 31 35 35 35
18 16 7 9 14 16 16 16 16 11 7 6 7 7 7 9 10 12 15 14 11 10 10 11 13 12 13 14 14 13 13 14 16 12 8 9 5 8 14 13 11 15 14 11 11 10 12 9 9 13 21 20 13 13 16 15 16 16 13 12 11 9 8 9 9 8 7 6 5 6 7 7 8 8 12 12 12 15 14 11 12 15 23 31 33 35 35 33
17 12 8 13 16 18 20 17 10 5 5 6 6 7 8 10 11 13 14 11 9 10 11 12 14 13 13 14 12 11 12 12 14 12 10 9 6 8 13 16 14 14 15 11 8 9 9 8 10 10 13 16 16 16 20 19 18 16 12 12 12 11 10 9 9 10 8 7 6 5 6 4 3 4 9 12 12 14 15 12 12 15 23 31 33 34 37 35
16 10 12 14 13 19 20 12 5 5 5 6 8 9 8 9 11 12 11 10 9 10 10 10 12 13 13 12 11 12 11 11 13 14 12 10 9 8 12 19 18 14 12 10 7 7 7 7 10 12 11 14 19 20 20 21 21 19 16 14 12 12 11 10 8 8 9 9 8 7 6 1 5 4 4 9 8 12 15 13 11 16 22 28 32 34 38 39
15 14 17 12 12 18 16 7 6 6 5 8 11 12 10 8 10 9 9 9 7 7 8 9 10 12 12 11 12 13 12 12 13 14 14 13 11 14 20 22 19 14 10 10 9 8 6 6 9 10 11 12 18 20 19 20 20 17 16 16 13 12 13 11 8 7 8 10 9 7 6 2 4 4 2 5 4 9 15 13 11 15 18 22 29 33 38 43
19 21 20 12 15 16 11 5 7 6 7 11 12 12 10 8 8 8 8 9 7 5 7 8 9 11 11 11 11 12 12 11 11 14 15 11 14 25 32 29 21 13 9 9 9 9 7 6 9 8 8 9 14 16 15 18 18 13 14 18 18 18 18 14 10 8 7 10 11 8 6 3 4 2 2 4 5 6 12 13 13 15 16 19 23 28 38 45
20 17 15 15 16 12 7 7 8 7 9 12 12 12 11 8 9 9 9 10 8 6 7 7 10 12 10 11 11 11 12 10 11 14 13 11 16 23 29 31 25 15 13 15 14 11 6 6 8 7 9 10 12 13 12 13 13 11 15 21 23 23 21 15 9 8 7 8 11 9 5 5 7 6 6 7 6 4 8 12 13 14 16 13 10 19 36 45
17 11 9 15 16 11 7 10 12 9 9 10 10 11 10 9 10 9 9 8 5 7 9 8 10 11 9 10 11 10 12 12 13 12 9 11 11 13 24 32 25 17 20 20 18 12 6 7 9 10 10 8 5 6 11 15 15 15 19 22 25 25 23 16 9 8 7 6 8 7 5 8 9 8 8 8 6 2 4 11 11 9 13 11 12 18 27 35
14 9 9 12 12 10 9 12 13 10 10 11 8 9 11 11 10 8 6 6 7 10 10 7 8 9 8 10 11 10 11 13 15 13 10 11 11 13 24 28 20 22 30 20 14 10 5 8 11 13 15 13 11 10 7 10 14 20 23 22 24 26 25 19 13 10 9 6 7 7 7 9 11 9 7 6 8 6 7 9 12 11 18 18 16 20 21 22
11 10 14 14 10 9 10 13 15 13 13 12 8 9 12 12 11 8 7 7 9 10 7 6 8 8 9 11 10 10 11 12 13 11 10 11 12 13 19 20 17 26 30 17 10 9 5 8 10 13 16 16 15 15 11 8 9 15 22 24 23 25 27 24 16 13 12 7 7 7 5 5 8 10 8 7 9 9 6 8 15 15 19 19 13 15 19 19
14 12 15 16 13 14 16 17 18 15 13 11 9 8 10 11 10 10 8 8 8 9 8 8 9 10 11 11 10 10 11 10 11 11 10 11 13 11 12 13 15 22 24 15 10 10 5 6 9 12 14 15 14 16 16 12 8 9 16 23 23 23 25 24 20 17 14 10 9 8 8 7 4 8 9 9 10 12 9 10 15 13 14 14 10 10 16 18
15 12 14 17 16 17 18 18 16 13 10 10 9 7 8 10 10 11 10 9 9 9 9 10 10 11 12 13 12 11 11 12 12 11 12 12 10 9 8 7 10 18 20 14 11 12 9 7 11 12 11 11 11 13 16 13 7 10 14 18 22 23 24 23 21 19 15 13 13 11 10 9 6 8 10 7 7 10 9 10 14 14 11 12 12 10 13 17
16 17 17 16 12 12 14 15 13 10 7 7 7 7 9 10 11 11 11 11 12 10 9 11 12 11 12 13 13 12 13 13 12 12 13 12 10 10 9 8 11 15 16 13 11 12 10 8 11 10 7 9 8 9 15 12 9 12 15 13 14 16 19 19 19 18 15 14 14 12 9 7 6 7 10 9 5 4 5 8 11 11 8 11 16 15 15 20
20 20 19 14 9 10 12 12 12 10 8 7 8 9 11 12 13 13 10 9 10 9 7 10 13 12 11 12 12 13 14 15 16 16 16 15 15 15 15 15 16 14 12 12 10 10 10 8 8 8 7 8 8 8 12 10 8 9 11 11 12 13 15 17 18 19 18 15 12 10 8 6 6 6 8 12 12 7 5 5 5 3 4 2 10 10 12 21
Wind_Direction
351 348 347 344 342 339 336 334 331 330 327 324 321 317 314 312 312 312 312 310 309 308 305 304 302 301 302 300 298 297 298 293 288 276 263 261 263 263 250 239 238 238 232 223 215 205 202 204 207 207 210 215 220 227 230 227 227 231 233 233 251 267 256 271 271 266 293 295 191 167 98 104 129 123 128 136 122 121 128 113 112 128 127 132 140 146 149 151
351 349 347 345 343 339 337 335 333 332 329 327 324 320 317 315 315 314 313 311 309 307 306 305 302 302 303 299 298 299 299 297 294 274 257 254 262 261 239 222 224 220 222 215 205 204 203 205 205 205 209 216 218 219 228 224 220 227 237 234 231 268 273 285 292 228 268 294 257 186 104 107 134 121 156 153 120 126 123 110 110 115 119 128 139 146 151 154
352 351 349 347 345 341 339 337 335 333 330 328 324 322 319 318 319 318 317 314 309 307 306 305 304 304 302 297 297 298 302 305 295 278 266 257 249 244 221 198 201 206 219 211 203 207 208 209 203 204 210 217 219 214 223 218 213 224 235 244 191 225 259 273 277 247 235 251 235 174 135 173 168 123 171 149 125 137 130 124 120 118 126 135 141 148 153 156
354 353 352 350 347 345 343 340 338 336 334 330 326 322 318 318 319 320 321 318 312 307 305 306 304 303 301 294 292 298 308 307 289 277 275 261 238 228 221 211 210 216 225 214 205 211 212 212 205 206 211 219 223 216 222 217 213 219 225 243 177 184 226 248 255 264 264 257 226 143 119 179 173 156 167 137 134 138 135 136 135 134 136 140 145 151 155 158
355 354 352 351 349 347 345 342 341 339 337 333 328 323 318 317 317 319 321 320 316 309 306 306 303 303 297 286 283 293 306 305 291 266 268 260 235 223 224 224 227 226 226 215 210 214 212 212 207 208 214 223 226 220 224 219 217 227 238 246 171 175 221 239 226 261 267 259 225 126 122 193 171 152 132 124 143 164 153 138 139 143 141 145 148 153 157 160
354 354 352 350 348 347 344 341 340 338 338 335 331 325 319 317 315 317 319 320 319 311 308 305 305 301 288 278 272 257 256 269 82 57 340 278 229 218 219 221 221 219 217 212 213 214 210 211 209 208 214 224 228 225 222 216 217 228 247 243 183 182 219 248 223 252 256 247 244 135 149 193 167 135 142 144 164 166 167 144 142 147 144 148 150 155 160 161
354 353 351 349 347 346 343 339 338 337 337 334 332 328 322 318 314 315 316 318 320 315 310 306 306 294 283 271 258 238 234 247 237 242 305 314 227 208 209 212 209 206 206 209 214 212 207 210 209 209 213 221 228 230 226 218 220 228 248 248 213 193 194 220 223 253 256 239 242 231 156 192 144 136 161 157 151 143 155 148 144 147 146 151 153 158 162 162
352 351 350 348 346 345 342 338 337 337 337 334 332 329 324 321 315 313 314 316 318 317 312 307 306 292 281 256 250 247 239 249 255 253 267 275 258 236 221 210 201 195 198 207 213 209 207 211 210 210 214 222 226 231 229 221 222 228 239 248 245 229 203 206 198 227 259 244 226 240 225 213 151 159 171 151 135 130 145 145 141 146 150 155 157 160 163 165
350 350 348 347 345 344 342 339 338 338 337 335 333 329 326 324 319 314 312 313 315 316 313 309 304 290 278 250 244 254 250 261 272 249 247 257 253 240 251 233 198 188 194 205 211 209 209 211 212 213 219 227 229 235 234 226 223 225 230 238 248 252 231 210 191 198 240 240 228 232 228 231 183 176 168 153 147 138 144 143 142 148 153 158 160 163 165 167
349 349 348 347 345 343 341 339 338 339 337 335 334 331 328 325 321 317 312 312 312 313 314 309 302 295 281 252 234 252 262 274 263 238 234 241 244 231 231 233 195 185 192 206 210 210 210 213 214 216 226 235 236 239 239 235 231 229 231 230 240 255 251 235 214 207 228 235 228 235 230 227 202 186 169 158 158 148 146 147 148 152 157 161 163 166 168 170
348 348 348 347 345 343 341 338 338 339 336 336 336 333 330 326 322 318 312 310 310 310 313 307 300 296 282 240 228 242 257 275 232 216 214 219 227 225 215 204 194 188 195 208 211 212 212 215 216 218 225 234 242 245 244 245 244 242 241 231 227 239 246 245 238 223 226 229 223 236 249 238 209 193 192 167 160 152 148 150 153 157 160 164 167 166 169 175
347 347 348 347 346 344 341 339 339 338 336 335 336 334 332 328 322 318 311 310 308 307 310 305 294 289 275 230 235 239 223 217 229 204 204 207 213 220 209 195 198 196 200 210 213 215 215 217 220 222 224 227 241 247 245 246 247 248 248 248 238 231 239 241 239 232 229 229 221 228 244 237 216 198 186 164 161 156 154 156 157 161 162 165 168 167 170 177
347 348 348 348 347 345 342 340 340 339 337 336 335 335 333 328 323 318 312 310 308 306 308 301 289 283 254 237 248 252 231 217 221 226 226 214 213 216 209 200 201 202 207 214 216 217 218 221 224 228 233 233 238 241 250 254 249 247 240 249 256 244 241 233 230 228 226 232 225 224 235 231 220 201 182 165 166 160 156 160 162 161 162 167 169 168 172 176
348 348 349 350 349 346 343 342 342 340 339 337 336 336 334 331 325 319 314 310 307 304 304 299 291 270 232 250 264 266 245 235 230 232 233 220 218 215 209 204 205 207 210 217 221 220 220 223 229 234 237 239 245 246 251 257 248 246 234 231 243 248 248 231 222 218 219 221 215 222 235 232 234 199 177 166 164 160 157 163 167 165 164 168 170 171 174 177
348 349 348 350 350 346 344 344 344 342 341 340 339 340 335 329 326 323 318 311 304 299 300 294 279 234 241 268 280 269 229 231 234 230 224 221 221 214 207 204 207 210 211 218 222 221 220 221 226 233 235 237 246 251 248 242 231 231 232 227 224 234 250 241 223 209 216 217 207 218 231 236 246 177 156 160 161 159 163 168 169 170 169 169 172 173 176 179
348 348 347 350 350 347 345 345 346 344 344 343 343 343 332 323 328 328 320 313 300 289 281 281 284 253 258 277 288 263 217 219 225 223 219 219 219 214 205 203 208 212 213 217 221 223 221 219 223 229 233 232 236 242 245 244 229 218 226 230 224 224 233 244 233 206 207 215 210 215 224 243 235 146 149 161 162 164 172 171 164 171 176 171 172 173 176 179
348 348 347 349 349 347 344 345 347 345 346 347 346 346 337 330 334 332 323 323 320 287 238 219 292 268 255 265 276 245 220 219 221 215 213 213 214 212 201 201 207 208 210 213 218 224 222 219 220 223 229 231 224 225 230 234 226 211 216 227 230 230 225 232 241 209 195 205 217 212 218 242 183 140 159 161 156 174 181 165 152 168 184 172 170 173 177 181
348 348 347 347 349 348 344 345 347 346 350 351 351 354 351 344 340 339 342 346 351 329 257 229 226 256 250 247 250 244 231 218 213 209 205 203 206 207 198 199 202 201 205 210 212 218 219 216 218 218 221 224 220 217 217 222 223 212 211 219 226 234 234 225 230 213 191 198 218 218 217 230 179 146 163 157 159 186 179 157 152 172 187 175 174 178 179 183
347 346 346 346 350 348 344 346 347 350 355 357 4 7 359 351 345 357 45 344 316 279 276 223 197 228 293 274 249 244 264 221 200 201 199 195 199 202 199 198 201 200 201 204 204 207 212 211 214 220 217 214 216 217 220 223 227 226 219 218 221 226 235 232 226 210 195 197 213 224 220 218 203 168 160 161 172 185 171 162 170 179 181 175 180 183 181 183
345 345 345 345 348 348 345 345 348 355 3 7 11 10 4 359 350 351 352 314 285 270 280 272 233 244 277 289 274 232 240 217 193 199 198 192 192 198 199 195 199 202 202 205 196 198 208 214 213 217 216 213 216 220 226 228 233 240 234 224 224 223 229 235 234 210 196 206 207 218 226 220 218 188 166 177 189 184 170 171 182 184 177 175 185 190 184 184
345 344 344 344 346 348 346 345 352 2 9 15 12 9 9 5 352 323 325 309 291 275 269 271 262 256 261 268 271 253 242 230 205 203 198 190 191 196 194 192 199 202 203 207 199 196 208 222 219 216 218 218 218 220 227 230 230 240 246 240 229 224 225 229 239 215 192 209 208 209 220 222 230 211 173 182 196 187 171 175 187 187 182 179 187 191 182 180
346 344 344 344 343 347 348 346 358 7 9 14 8 6 7 357 341 316 315 303 295 287 266 262 262 258 256 256 260 264 268 247 213 204 196 188 191 195 188 191 203 202 199 204 203 197 208 226 222 215 216 221 223 219 221 229 230 233 242 249 242 229 224 221 237 228 197 207 213 210 218 218 225 224 194 184 190 188 172 174 186 185 181 179 183 184 178 182
346 345 345 344 342 347 349 346 2 9 2 0 356 359 357 342 333 319 308 292 290 288 269 252 249 247 247 247 247 250 252 240 218 204 194 189 193 197 192 193 204 205 198 201 207 203 209 223 220 217 216 217 224 221 218 224 230 231 231 240 244 236 231 217 225 228 215 219 220 218 227 228 218 220 226 196 184 195 174 169 181 181 177 179 181 183 183 190
346 345 345 346 343 346 351 349 1 5 350 341 345 352 348 335 333 330 313 287 276 283 274 253 239 236 236 235 232 231 231 229 225 208 194 193 194 196 200 200 202 209 204 203 212 218 221 217 208 215 218 215 221 222 219 219 222 230 229 232 237 237 240 238 227 219 213 217 220 224 227 233 231 224 238 200 179 198 170 162 176 176 174 181 182 185 188 191
346 346 346 347 343 345 357 2 354 353 342 343 351 344 340 335 333 332 317 291 266 275 275 252 230 231 230 224 217 217 222 225 225 214 198 197 195 192 203 205 202 213 209 205 214 224 227 221 205 208 215 217 219 219 220 219 219 226 228 231 235 237 241 245 245 228 210 212 211 226 236 222 229 233 242 222 193 205 162 153 172 173 172 181 181 185 190 190
345 346 346 349 344 344 358 5 348 352 351 347 347 339 334 334 330 327 315 288 276 261 246 206 197 214 214 207 201 202 218 226 222 221 207 199 198 196 200 205 206 214 212 208 215 227 227 225 216 207 210 215 217 220 219 218 223 225 222 227 233 240 242 239 244 237 227 228 204 212 236 232 221 223 235 236 218 213 167 154 173 176 174 179 179 183 188 191
344 344 345 350 347 345 355 360 358 2 353 337 336 335 329 328 328 326 310 266 273 218 147 151 169 182 192 192 186 186 209 216 210 220 217 200 197 202 205 205 205 211 211 209 217 220 216 222 223 212 209 212 216 219 215 215 224 228 219 219 224 235 243 242 244 242 242 251 223 210 215 224 228 213 227 238 228 223 188 167 173 172 172 174 176 180 185 190
343 343 344 348 348 349 351 355 4 355 341 333 329 328 325 324 323 316 293 275 296 118 107 99 124 125 190 186 183 190 212 185 188 210 214 203 195 201 212 212 209 208 207 213 219 213 209 217 222 216 212 213 215 216 213 214 223 229 226 222 217 223 234 241 245 247 247 250 246 230 215 217 233 215 222 232 226 228 217 201 184 164 167 173 175 180 182 186
342 342 343 343 347 356 348 345 351 335 328 329 325 324 323 318 313 297 253 276 303 35 69 122 132 139 159 177 189 203 222 229 218 197 200 206 199 201 218 218 216 214 209 220 229 220 213 213 218 222 219 214 215 216 212 214 221 223 227 232 224 218 222 231 238 246 252 249 244 241 233 231 235 221 217 217 219 220 215 221 200 159 164 173 176 180 181 182
342 341 341 341 345 357 348 331 328 324 325 326 324 325 319 308 297 268 239 252 290 356 356 151 115 136 171 179 198 211 224 242 260 202 190 200 199 202 220 220 223 228 214 222 231 233 231 214 211 223 227 215 213 217 212 213 220 216 220 232 233 225 218 220 227 235 246 247 239 239 240 240 236 235 229 216 217 219 219 219 186 158 163 169 172 178 178 180
343 340 341 346 354 1 353 326 326 329 327 325 325 323 312 296 271 249 256 303 324 354 355 5 15 358 241 234 219 211 214 229 251 224 190 196 195 199 215 214 219 231 221 220 223 231 238 226 210 214 223 219 209 216 214 209 215 214 210 219 225 225 221 217 213 216 232 237 231 234 239 240 234 232 237 236 216 212 239 227 161 156 164 164 170 177 175 178
343 339 342 356 3 0 344 321 326 328 324 324 323 318 309 285 250 234 261 301 315 3 357 346 350 341 311 303 288 244 225 215 231 230 198 196 196 195 207 209 202 209 220 219 210 217 229 233 226 209 213 218 209 206 212 206 205 208 204 204 211 210 204 211 210 209 229 237 226 227 232 237 240 231 232 246 228 198 223 221 163 165 173 167 171 177 176 179
342 337 343 7 3 351 327 318 323 322 322 324 315 306 296 275 266 263 270 284 339 8 348 338 336 326 310 300 288 269 252 218 217 225 206 199 202 200 206 213 209 206 215 216 207 209 216 225 229 218 203 211 214 203 203 202 194 199 203 197 205 207 194 204 212 217 231 235 227 226 226 232 240 236 230 239 244 218 211 210 189 178 177 172 173 176 176 179
340 335 342 360 353 340 323 322 324 321 321 319 307 294 276 269 274 275 273 289 350 355 342 339 331 315 301 284 272 271 261 229 209 216 213 202 206 206 205 212 216 216 217 217 212 210 213 215 219 220 200 194 210 214 203 197 190 198 206 203 209 213 202 204 208 217 230 227 220 220 223 233 231 225 226 227 238 241 224 218 205 181 176 175 171 174 177 178
340 338 339 336 330 330 331 327 324 323 321 312 300 287 271 274 273 268 291 333 345 344 338 330 317 301 292 279 269 261 254 243 214 209 212 211 213 212 207 210 214 218 216 215 215 211 219 221 207 215 213 194 201 211 207 200 194 196 202 208 214 211 206 217 220 219 228 232 219 213 217 235 240 237 232 222 222 227 225 235 223 176 168 171 167 172 178 178
343 344 343 327 307 319 334 331 326 322 318 309 298 289 275 284 299 309 346 355 344 337 335 326 306 285 280 277 275 261 253 255 235 217 207 212 221 220 214 209 209 216 220 216 217 213 220 224 201 204 215 210 199 198 206 212 201 186 200 211 211 210 214 228 230 220 223 230 221 216 220 223 235 242 232 224 222 216 209 224 232 175 163 167 169 173 177 179
345 338 329 317 294 319 333 330 325 317 309 305 300 301 295 301 324 345 359 355 337 326 329 328 308 295 292 292 306 317 322 297 244 226 213 208 217 222 220 216 207 212 221 227 232 230 227 227 205 200 207 210 198 191 205 220 217 191 197 206 202 212 221 229 242 228 221 231 221 218 225 216 213 224 222 221 223 220 203 204 224 202 167 165 169 172 178 181
344 332 318 305 298 324 332 325 321 312 300 301 290 284 290 303 321 337 347 344 326 313 316 321 309 312 311 306 317 329 332 322 261 241 234 209 204 224 229 231 219 211 216 224 234 237 236 238 211 200 202 199 188 190 204 216 223 224 202 194 197 209 209 206 233 235 221 232 226 220 228 221 211 205 208 214 212 219 215 196 212 216 168 159 166 169 179 182
343 328 318 355 340 331 334 320 309 300 290 304 310 304 317 312 316 327 324 321 317 308 305 307 312 315 311 314 325 322 320 319 305 294 278 243 244 35 28 353 297 270 235 231 237 237 236 250 225 197 192 189 181 191 205 204 216 231 221 197 200 213 208 200 217 234 231 232 223 222 231 234 232 207 196 207 199 203 220 205 205 201 159 157 166 170 180 184
336 314 317 23 356 342 337 312 290 280 286 314 323 327 329 319 324 324 309 309 322 318 306 307 311 309 309 315 319 315 314 314 310 311 308 300 324 40 31 11 344 343 333 287 261 247 235 245 250 202 185 190 192 193 203 198 199 216 219 204 197 201 207 206 211 220 232 240 225 223 228 227 238 216 186 195 193 187 206 220 208 191 168 164 168 173 181 187
324 294 311 354 353 347 333 306 284 292 310 315 317 320 326 327 322 308 301 310 314 298 297 309 308 302 305 307 308 322 323 310 309 307 289 295 342 26 17 4 351 343 336 310 268 240 230 234 244 227 194 197 201 193 198 203 200 203 210 210 200 195 201 207 209 209 217 239 239 235 247 237 239 223 178 185 196 181 188 215 215 201 187 173 170 177 183 186
318 296 310 331 350 346 327 303 319 352 312 317 329 321 323 322 307 300 308 313 302 291 293 301 304 304 304 303 314 332 323 306 308 304 295 308 333 354 0 356 345 333 335 328 293 253 255 252 237 239 234 210 195 189 195 205 208 205 206 214 208 197 202 208 208 202 204 223 238 243 253 353 37 4 150 165 184 168 174 205 208 199 200 184 175 182 183 182
326 311 305 325 1 343 321 305 340 339 313 329 330 317 317 316 305 310 313 298 295 308 302 299 300 299 303 314 324 325 314 305 301 298 304 315 337 354 352 351 345 331 338 350 337 337 329 269 233 240 253 220 190 186 193 204 212 210 204 210 215 205 202 210 214 207 203 210 217 234 238 155 54 2 60 130 164 155 165 195 196 188 207 199 183 184 180 176
319 302 297 338 10 341 318 327 339 328 321 326 323 316 318 317 306 307 304 295 302 313 298 297 296 293 305 319 317 309 306 304 296 298 306 317 348 353 346 346 348 334 340 3 342 337 339 262 235 240 256 229 191 186 191 199 209 217 205 202 212 213 203 204 213 211 214 210 202 216 228 168 105 78 107 146 180 160 158 182 194 185 199 209 194 180 171 169
312 301 303 337 350 333 318 332 327 317 320 323 321 316 316 315 309 310 309 307 308 299 289 295 301 301 306 308 305 300 295 289 286 298 315 335 347 344 334 331 333 329 342 346 322 309 311 283 268 248 238 223 198 189 192 196 201 216 213 201 205 215 210 203 208 209 211 205 199 214 219 144 127 140 150 159 173 164 150 170 196 189 182 198 192 162 162 165
309 308 324 337 335 323 311 319 323 321 319 321 319 314 316 316 310 308 305 304 309 304 299 299 300 298 294 297 306 307 298 294 292 299 334 355 344 331 323 317 314 330 345 328 301 297 292 279 281 267 258 260 253 218 201 200 199 206 215 206 198 209 216 208 204 208 206 198 201 211 176 140 144 145 146 151 151 168 169 168 187 170 131 107 84 114 148 165
309 312 332 338 332 318 312 322 327 320 311 313 309 304 310 308 305 310 308 312 326 316 304 297 294 295 302 307 306 303 304 303 299 307 345 357 336 322 320 309 304 340 349 326 292 303 298 272 274 269 270 276 289 291 238 211 211 206 211 212 198 200 212 215 209 198 190 194 202 191 156 151 154 144 152 164 159 195 222 180 170 136 103 97 93 102 121 143
320 318 325 331 324 311 317 320 315 308 307 307 298 298 307 303 303 313 316 316 315 307 298 293 295 304 313 312 305 302 307 305 303 318 347 349 335 326 325 320 324 346 348 330 311 332 309 277 283 280 277 269 266 279 282 279 261 217 209 212 203 196 205 213 214 200 187 196 204 180 167 182 155 141 169 184 166 191 211 154 159 147 116 115 123 119 121 125
326 317 319 328 321 306 306 306 304 306 307 300 294 298 299 297 303 312 315 317 309 303 308 305 305 313 313 310 305 300 305 307 310 326 334 328 328 327 328 332 333 338 339 331 331 342 321 289 298 294 289 282 273 275 272 264 269 252 223 213 206 200 201 208 215 210 197 200 209 187 185 211 170 137 173 182 163 177 176 140 153 150 115 116 134 145 147 140
327 318 317 324 318 301 299 303 304 305 301 298 301 297 285 293 311 316 311 311 307 309 316 307 305 313 311 308 304 297 305 311 307 314 318 315 323 325 323 325 318 324 330 332 335 337 331 323 321 314 299 286 278 277 275 260 251 283 265 226 209 202 198 201 212 215 204 198 207 200 184 194 178 140 154 153 132 154 156 131 136 137 129 141 160 179 173 147
319 313 315 321 313 294 298 303 303 302 299 299 306 307 302 305 310 305 302 309 313 317 316 308 308 311 303 299 299 300 306 306 297 298 302 301 307 307 302 301 305 314 320 322 330 335 329 328 327 318 292 269 258 269 280 260 225 260 276 259 234 217 202 197 202 212 209 194 199 204 188 185 187 149 135 134 140 150 113 103 128 137 144 164 170 182 179 152
320 319 319 320 304 286 294 299 301 304 304 305 307 302 297 299 302 303 304 309 308 301 291 295 302 303 295 294 301 309 309 304 300 298 294 289 289 288 283 281 283 288 299 309 320 322 318 326 329 318 297 272 251 264 284 266 224 249 271 264 251 231 212 202 196 205 211 199 197 205 183 167 193 198 166 158 168 171 122 112 136 99 34 152 173 177 164 149
Height
1514 1512 1511 1509 1507 1506 1504 1502 1501 1499 1498 1496 1495 1493 1492 1490 1489 1488 1486 1484 1483 1483 1482 1482 1481 1480 1480 1479 1478 1477 1476 1475 1474 1474 1467 1462 1467 1470 1470 1471 1472 1474 1475 1477 1479 1481 1481 1482 1484 1486 1488 1487 1487 1485 1484 1484 1482 1483 1486 1496 1500 1495 1491 1484 1478 1476 1475 1473 1466 1461 1458 1460 1464 1463 1464 1466 1468 1470 1472 1474 1477 1479 1481 1486 1491 1496 1500 1505
1513 1511 1510 1508 1506 1504 1503 1501 1499 1498 1496 1495 1493 1491 1490 1489 1487 1486 1485 1483 1482 1481 1480 1480 1479 1479 1478 1477 1476 1475 1474 1472 1471 1466 1460 1461 1467 1467 1467 1469 1470 1472 1473 1474 1477 1479 1480 1480 1482 1484 1485 1484 1483 1482 1482 1480 1479 1480 1482 1491 1495 1489 1483 1475 1473 1471 1470 1474 1469 1462 1461 1462 1462 1462 1464 1467 1468 1471 1474 1477 1478 1481 1484 1488 1493 1498 1501 1504
1513 1511 1509 1507 1506 1504 1502 1500 1498 1496 1495 1493 1491 1489 1488 1487 1486 1484 1483 1482 1480 1479 1478 1478 1478 1477 1477 1476 1475 1474 1472 1471 1467 1458 1454 1460 1464 1464 1466 1467 1468 1471 1471 1473 1475 1477 1479 1479 1481 1483 1483 1481 1479 1479 1478 1476 1476 1475 1478 1487 1488 1480 1476 1473 1472 1469 1469 1473 1466 1461 1462 1462 1462 1462 1463 1466 1469 1471 1474 1478 1480 1483 1487 1490 1494 1498 1501 1505
1512 1511 1509 1507 1505 1503 1501 1499 1497 1495 1493 1492 1489 1488 1486 1484 1484 1482 1482 1480 1478 1477 1476 1476 1476 1475 1475 1474 1474 1473 1471 1469 1461 1453 1452 1456 1458 1461 1464 1465 1467 1469 1470 1472 1474 1476 1478 1479 1480 1480 1480 1478 1476 1475 1474 1473 1473 1472 1474 1480 1477 1473 1475 1473 1472 1469 1467 1468 1462 1459 1461 1461 1461 1462 1461 1463 1472 1475 1473 1478 1482 1484 1487 1490 1495 1498 1501 1505
1512 1511 1509 1507 1504 1502 1500 1498 1496 1494 1492 1490 1488 1486 1484 1483 1481 1480 1480 1478 1477 1475 1475 1475 1474 1474 1473 1473 1473 1472 1473 1469 1457 1451 1453 1453 1455 1459 1461 1463 1465 1467 1469 1471 1473 1475 1476 1476 1477 1477 1477 1475 1473 1473 1470 1468 1470 1470 1468 1466 1466 1469 1472 1470 1469 1470 1467 1463 1457 1456 1462 1462 1459 1460 1461 1464 1474 1476 1473 1477 1482 1484 1487 1490 1494 1498 1501 1504
1512 1510 1508 1506 1504 1502 1500 1497 1495 1493 1491 1489 1487 1485 1482 1481 1479 1479 1478 1476 1475 1474 1473 1473 1472 1473 1471 1471 1471 1471 1472 1465 1454 1453 1453 1453 1455 1456 1458 1461 1463 1466 1468 1470 1471 1473 1473 1474 1474 1474 1473 1472 1471 1469 1466 1465 1467 1471 1467 1459 1462 1465 1467 1466 1467 1469 1465 1459 1455 1455 1460 1458 1457 1461 1463 1465 1470 1471 1473 1477 1481 1484 1488 1490 1493 1497 1499 1503
1512 1510 1508 1506 1504 1501 1499 1497 1495 1492 1490 1488 1486 1483 1481 1479 1478 1477 1476 1474 1474 1472 1471 1471 1471 1471 1470 1470 1469 1470 1469 1458 1451 1454 1454 1454 1456 1455 1457 1458 1460 1464 1466 1468 1469 1469 1470 1470 1470 1469 1470 1471 1468 1465 1463 1462 1463 1468 1467 1458 1459 1462 1463 1465 1465 1467 1463 1457 1454 1454 1456 1454 1456 1462 1462 1462 1465 1469 1473 1476 1480 1485 1488 1491 1494 1496 1499 1502
1512 1510 1507 1505 1503 1501 1499 1496 1494 1492 1489 1487 1484 1482 1479 1477 1476 1475 1474 1473 1471 1471 1470 1469 1469 1469 1469 1469 1468 1468 1463 1451 1450 1454 1454 1455 1456 1456 1457 1457 1458 1461 1463 1466 1466 1467 1468 1467 1467 1467 1468 1467 1465 1462 1459 1460 1461 1463 1464 1458 1456 1457 1458 1460 1461 1465 1462 1456 1454 1454 1453 1452 1453 1458 1458 1459 1464 1469 1473 1475 1480 1484 1488 1491 1494 1496 1499 1502
1511 1509 1507 1505 1502 1500 1498 1495 1493 1490 1488 1486 1483 1481 1478 1476 1474 1473 1472 1471 1470 1469 1468 1468 1467 1467 1467 1467 1468 1466 1453 1447 1450 1452 1453 1454 1455 1456 1456 1456 1456 1458 1461 1463 1464 1465 1465 1465 1465 1465 1465 1463 1462 1460 1455 1460 1461 1457 1457 1456 1454 1453 1452 1454 1457 1461 1461 1454 1452 1453 1452 1451 1450 1454 1456 1458 1462 1468 1472 1476 1480 1484 1487 1490 1493 1496 1499 1501
1511 1509 1507 1504 1501 1499 1496 1494 1491 1489 1487 1485 1482 1479 1477 1475 1473 1472 1470 1470 1469 1467 1466 1466 1466 1466 1466 1465 1468 1461 1448 1448 1451 1449 1452 1453 1453 1455 1455 1455 1455 1457 1459 1461 1463 1463 1463 1463 1463 1464 1464 1461 1459 1458 1453 1455 1455 1450 1450 1451 1452 1452 1448 1449 1451 1454 1456 1452 1451 1452 1451 1448 1447 1453 1458 1456 1459 1465 1470 1475 1479 1483 1486 1488 1491 1495 1498 1500
1510 1508 1506 1503 1501 1498 1495 1493 1490 1488 1485 1483 1481 1478 1475 1473 1471 1470 1469 1468 1467 1466 1465 1464 1464 1464 1464 1464 1464 1455 1447 1450 1450 1449 1452 1452 1452 1453 1454 1456 1456 1456 1459 1460 1461 1461 1462 1462 1463 1464 1463 1460 1458 1456 1452 1450 1448 1446 1448 1448 1448 1448 1447 1447 1447 1449 1450 1449 1449 1448 1448 1446 1446 1453 1455 1453 1457 1462 1468 1473 1478 1482 1485 1487 1490 1493 1496 1499
1510 1507 1505 1502 1500 1497 1494 1492 1489 1487 1484 1481 1479 1476 1474 1472 1469 1468 1467 1466 1465 1465 1464 1463 1463 1462 1462 1463 1456 1448 1447 1450 1451 1451 1451 1451 1452 1452 1453 1456 1456 1457 1458 1459 1460 1460 1461 1462 1462 1461 1459 1459 1458 1456 1453 1448 1446 1446 1446 1450 1448 1444 1447 1446 1444 1446 1447 1447 1445 1445 1455 1454 1448 1450 1449 1450 1456 1460 1465 1471 1475 1479 1483 1486 1488 1491 1495 1498
1509 1506 1504 1501 1499 1496 1493 1490 1488 1485 1483 1480 1477 1475 1473 1470 1468 1466 1465 1465 1464 1463 1462 1462 1461 1460 1462 1456 1445 1443 1447 1447 1449 1451 1451 1451 1452 1452 1453 1455 1456 1457 1458 1458 1459 1459 1460 1461 1460 1459 1458 1457 1455 1454 1451 1445 1447 1447 1446 1452 1454 1453 1452 1444 1441 1444 1444 1445 1441 1446 1466 1463 1447 1443 1444 1449 1455 1457 1463 1469 1473 1477 1481 1484 1487 1490 1493 1496
1508 1505 1503 1500 1498 1495 1492 1489 1487 1484 1481 1479 1476 1474 1471 1468 1467 1464 1463 1463 1462 1461 1461 1461 1460 1460 1459 1449 1440 1443 1445 1445 1446 1447 1449 1450 1450 1451 1452 1454 1455 1456 1457 1458 1458 1459 1459 1460 1460 1459 1457 1455 1452 1451 1449 1447 1449 1450 1450 1454 1458 1464 1458 1440 1435 1441 1444 1444 1437 1446 1467 1462 1443 1437 1439 1446 1452 1456 1461 1467 1472 1476 1479 1483 1486 1488 1491 1493
1508 1505 1502 1500 1497 1494 1491 1488 1486 1483 1480 1477 1474 1472 1469 1467 1465 1463 1462 1460 1460 1460 1459 1459 1458 1459 1457 1445 1438 1440 1441 1443 1443 1443 1446 1447 1448 1449 1449 1452 1454 1454 1456 1457 1457 1458 1458 1459 1459 1456 1455 1455 1453 1453 1452 1451 1448 1449 1458 1461 1459 1462 1458 1440 1431 1435 1442 1440 1433 1445 1464 1457 1440 1432 1436 1445 1450 1454 1460 1464 1470 1474 1477 1482 1485 1488 1491 1493
1507 1504 1501 1499 1496 1493 1490 1487 1485 1482 1479 1476 1473 1471 1468 1466 1464 1462 1460 1458 1458 1458 1458 1458 1457 1458 1455 1443 1437 1438 1437 1438 1438 1441 1444 1444 1446 1446 1447 1450 1452 1453 1454 1455 1456 1456 1456 1456 1455 1454 1454 1454 1453 1455 1458 1458 1453 1449 1457 1462 1457 1457 1457 1446 1431 1425 1432 1436 1433 1441 1455 1452 1438 1431 1436 1444 1449 1453 1458 1462 1468 1473 1475 1479 1483 1486 1490 1492
1507 1504 1501 1498 1496 1493 1489 1487 1484 1481 1478 1475 1472 1469 1467 1464 1462 1460 1458 1458 1457 1456 1457 1456 1457 1459 1450 1438 1435 1435 1434 1434 1435 1439 1440 1442 1444 1444 1446 1448 1449 1451 1452 1454 1455 1453 1453 1452 1452 1453 1451 1450 1449 1454 1464 1467 1459 1451 1451 1456 1453 1450 1452 1450 1437 1422 1423 1435 1437 1437 1445 1446 1436 1431 1436 1442 1448 1453 1455 1460 1468 1472 1473 1476 1480 1484 1488 1490
1507 1504 1501 1498 1496 1492 1489 1486 1483 1480 1477 1475 1472 1468 1466 1463 1461 1459 1457 1457 1456 1456 1457 1455 1458 1459 1442 1432 1434 1432 1431 1433 1433 1436 1438 1439 1442 1442 1444 1445 1446 1449 1450 1451 1451 1450 1451 1448 1448 1451 1450 1449 1447 1450 1461 1461 1453 1451 1451 1454 1452 1448 1446 1446 1439 1424 1421 1433 1440 1440 1443 1443 1436 1433 1436 1441 1448 1451 1452 1460 1468 1470 1471 1475 1478 1482 1486 1488
1506 1503 1501 1498 1495 1492 1489 1486 1483 1480 1477 1474 1471 1468 1465 1462 1459 1457 1457 1459 1458 1456 1453 1451 1453 1448 1433 1428 1432 1430 1430 1431 1431 1433 1435 1437 1439 1441 1441 1444 1445 1446 1447 1448 1447 1446 1446 1447 1449 1451 1448 1447 1444 1443 1448 1447 1444 1444 1444 1446 1448 1448 1443 1437 1430 1419 1419 1433 1441 1442 1443 1441 1438 1436 1435 1440 1446 1449 1452 1458 1464 1466 1469 1473 1476 1480 1483 1486
1506 1503 1500 1497 1495 1492 1489 1486 1483 1480 1478 1474 1470 1466 1465 1463 1459 1457 1458 1459 1458 1454 1448 1446 1447 1440 1430 1429 1429 1430 1430 1430 1430 1431 1433 1435 1437 1438 1439 1441 1442 1442 1442 1443 1444 1441 1444 1449 1448 1444 1442 1440 1440 1439 1439 1439 1439 1438 1437 1438 1439 1442 1440 1431 1423 1414 1414 1432 1440 1438 1439 1437 1435 1432 1431 1436 1440 1444 1450 1455 1460 1463 1466 1470 1474 1478 1481 1484
1506 1503 1500 1496 1494 1492 1489 1486 1483 1481 1479 1475 1472 1470 1470 1470 1467 1464 1459 1452 1450 1451 1446 1441 1442 1438 1432 1429 1426 1428 1430 1428 1429 1429 1430 1433 1435 1436 1436 1437 1439 1440 1438 1437 1439 1439 1443 1446 1440 1435 1435 1435 1435 1435 1436 1437 1438 1438 1437 1436 1434 1435 1434 1426 1419 1413 1411 1429 1437 1432 1436 1437 1431 1428 1428 1431 1436 1439 1444 1450 1456 1460 1463 1468 1472 1475 1479 1482
1506 1502 1499 1496 1493 1491 1489 1486 1484 1482 1479 1477 1475 1475 1476 1475 1475 1472 1465 1451 1438 1440 1442 1437 1435 1432 1429 1428 1425 1427 1430 1426 1425 1426 1427 1430 1432 1432 1431 1432 1436 1436 1435 1435 1438 1441 1443 1439 1431 1429 1430 1431 1432 1431 1435 1437 1437 1439 1438 1437 1435 1429 1427 1424 1418 1410 1409 1425 1433 1429 1435 1436 1427 1424 1424 1426 1430 1432 1436 1443 1449 1455 1460 1465 1470 1473 1476 1479
1506 1502 1499 1496 1493 1491 1488 1486 1484 1482 1480 1478 1478 1478 1477 1476 1475 1472 1469 1458 1437 1428 1432 1429 1426 1424 1423 1424 1423 1426 1427 1423 1421 1422 1424 1426 1426 1427 1427 1429 1432 1432 1432 1434 1436 1439 1439 1432 1425 1426 1426 1430 1433 1430 1433 1436 1436 1437 1437 1439 1437 1426 1426 1430 1422 1412 1410 1417 1425 1427 1432 1431 1423 1422 1421 1419 1422 1426 1431 1439 1445 1450 1455 1460 1465 1469 1472 1476
1505 1502 1499 1495 1493 1490 1488 1486 1484 1482 1481 1480 1480 1479 1477 1476 1474 1471 1467 1458 1438 1421 1417 1416 1415 1416 1414 1417 1420 1422 1422 1420 1418 1417 1420 1421 1422 1424 1425 1424 1428 1430 1428 1429 1430 1431 1429 1422 1419 1423 1424 1427 1432 1431 1431 1436 1438 1435 1432 1434 1434 1426 1424 1424 1418 1412 1412 1415 1418 1426 1438 1435 1427 1428 1424 1417 1420 1423 1427 1436 1443 1447 1452 1457 1462 1465 1469 1473
1504 1502 1498 1495 1492 1489 1488 1486 1483 1483 1482 1480 1481 1479 1478 1476 1473 1472 1466 1455 1437 1413 1403 1405 1406 1406 1406 1412 1417 1417 1418 1417 1414 1414 1415 1416 1418 1420 1421 1420 1424 1427 1425 1425 1428 1427 1422 1415 1414 1420 1424 1424 1429 1430 1427 1430 1436 1435 1429 1426 1426 1424 1421 1419 1415 1414 1423 1430 1421 1426 1449 1449 1432 1431 1429 1420 1420 1422 1423 1433 1441 1445 1450 1454 1458 1462 1466 1471
1504 1501 1498 1495 1492 1488 1487 1486 1484 1484 1480 1481 1481 1478 1478 1476 1473 1472 1466 1458 1436 1405 1395 1399 1398 1398 1401 1406 1410 1415 1419 1413 1409 1412 1411 1413 1415 1417 1420 1418 1417 1420 1419 1419 1423 1422 1417 1411 1409 1415 1420 1422 1425 1426 1422 1423 1432 1435 1424 1418 1421 1421 1421 1421 1418 1420 1431 1433 1416 1417 1444 1452 1437 1432 1428 1420 1420 1421 1422 1430 1436 1440 1445 1448 1452 1457 1462 1467
1504 1501 1498 1496 1493 1489 1487 1486 1485 1483 1481 1482 1480 1478 1478 1475 1473 1472 1468 1460 1429 1394 1391 1397 1396 1396 1397 1401 1404 1412 1415 1406 1405 1409 1406 1409 1413 1413 1417 1415 1413 1415 1411 1415 1423 1415 1410 1411 1410 1410 1415 1420 1422 1422 1417 1416 1428 1430 1416 1413 1419 1421 1423 1422 1420 1424 1425 1419 1413 1411 1425 1444 1442 1430 1422 1418 1421 1421 1421 1426 1428 1432 1438 1441 1446 1451 1457 1462
1504 1501 1498 1496 1494 1491 1489 1487 1485 1484 1485 1483 1479 1479 1477 1474 1475 1471 1472 1463 1418 1385 1392 1397 1397 1399 1397 1399 1402 1403 1402 1396 1400 1404 1401 1406 1408 1408 1412 1408 1409 1411 1405 1412 1420 1409 1403 1410 1410 1408 1413 1416 1415 1414 1410 1412 1422 1420 1409 1409 1414 1418 1422 1421 1422 1426 1420 1422 1430 1418 1413 1436 1441 1425 1417 1418 1421 1424 1422 1421 1421 1424 1431 1436 1441 1446 1451 1457
1504 1501 1498 1496 1494 1492 1490 1488 1486 1486 1486 1483 1480 1480 1475 1475 1475 1469 1476 1463 1410 1386 1397 1398 1399 1401 1398 1400 1401 1400 1398 1394 1395 1396 1398 1403 1403 1404 1407 1404 1404 1407 1403 1405 1410 1405 1398 1400 1402 1403 1408 1409 1407 1405 1403 1409 1415 1411 1406 1408 1410 1412 1417 1421 1425 1428 1426 1433 1440 1424 1413 1431 1438 1423 1417 1420 1422 1423 1419 1414 1413 1418 1426 1433 1438 1444 1448 1453
1504 1501 1498 1495 1493 1492 1490 1488 1488 1487 1485 1482 1480 1478 1475 1476 1473 1471 1477 1454 1408 1396 1400 1397 1400 1401 1400 1403 1403 1401 1400 1397 1392 1390 1394 1398 1399 1402 1403 1403 1403 1402 1403 1402 1403 1400 1392 1390 1394 1396 1398 1397 1398 1399 1398 1403 1406 1405 1409 1413 1414 1414 1415 1420 1423 1428 1439 1442 1435 1424 1415 1426 1439 1428 1415 1415 1413 1410 1408 1406 1408 1414 1422 1429 1436 1441 1445 1449
1503 1500 1498 1496 1493 1492 1490 1489 1489 1487 1485 1483 1480 1478 1476 1472 1469 1474 1467 1432 1407 1408 1404 1402 1406 1404 1403 1404 1401 1399 1399 1399 1393 1389 1393 1395 1397 1401 1402 1404 1404 1404 1406 1403 1402 1400 1394 1392 1390 1388 1389 1388 1394 1399 1396 1396 1399 1404 1412 1419 1426 1427 1424 1427 1427 1432 1447 1445 1430 1422 1415 1423 1438 1430 1413 1404 1398 1397 1401 1400 1404 1413 1419 1426 1433 1437 1440 1444
1502 1500 1498 1496 1494 1491 1490 1489 1488 1487 1485 1483 1481 1478 1476 1472 1469 1469 1451 1423 1420 1424 1417 1416 1418 1413 1410 1405 1401 1397 1395 1397 1392 1387 1391 1393 1395 1398 1399 1400 1401 1408 1411 1403 1402 1403 1398 1393 1386 1384 1385 1384 1393 1403 1401 1398 1399 1406 1413 1421 1435 1439 1439 1444 1442 1439 1442 1436 1424 1419 1420 1425 1427 1417 1407 1400 1392 1392 1396 1396 1401 1409 1414 1421 1428 1432 1436 1439
1501 1499 1497 1496 1494 1492 1491 1491 1489 1488 1485 1483 1482 1477 1476 1478 1473 1459 1442 1430 1431 1431 1426 1427 1424 1418 1415 1409 1404 1397 1392 1392 1390 1386 1386 1389 1393 1394 1395 1393 1391 1399 1405 1400 1402 1404 1402 1395 1385 1384 1383 1380 1387 1399 1406 1403 1401 1408 1413 1421 1434 1438 1448 1459 1453 1445 1442 1433 1421 1415 1420 1426 1420 1408 1400 1396 1390 1386 1387 1390 1395 1399 1406 1414 1420 1425 1430 1434
1500 1498 1496 1495 1493 1492 1492 1492 1489 1487 1485 1483 1481 1476 1476 1480 1470 1453 1442 1436 1433 1433 1433 1433 1428 1421 1414 1408 1403 1396 1393 1390 1385 1386 1387 1387 1393 1393 1393 1392 1387 1389 1395 1397 1398 1398 1405 1402 1386 1382 1381 1378 1381 1387 1392 1395 1400 1405 1403 1411 1423 1424 1437 1451 1447 1445 1443 1432 1422 1418 1421 1423 1418 1405 1392 1387 1386 1382 1382 1385 1386 1391 1399 1407 1414 1420 1426 1430
1499 1497 1495 1493 1494 1493 1492 1492 1489 1487 1486 1482 1479 1477 1478 1475 1461 1449 1444 1439 1436 1439 1439 1436 1431 1425 1414 1405 1399 1393 1393 1390 1382 1384 1388 1388 1390 1388 1388 1388 1385 1386 1391 1397 1393 1387 1397 1394 1376 1373 1372 1371 1379 1379 1377 1388 1401 1401 1396 1406 1414 1408 1415 1428 1428 1427 1428 1428 1424 1419 1416 1408 1401 1392 1380 1379 1381 1379 1382 1382 1381 1387 1393 1402 1411 1416 1422 1427
1498 1496 1495 1494 1495 1494 1492 1491 1488 1487 1486 1481 1480 1478 1474 1466 1455 1451 1452 1450 1448 1446 1444 1439 1431 1426 1417 1406 1399 1391 1389 1388 1381 1381 1384 1385 1385 1383 1381 1382 1381 1382 1385 1389 1387 1383 1391 1386 1368 1369 1370 1365 1373 1376 1374 1384 1394 1396 1399 1403 1400 1393 1402 1418 1422 1412 1415 1429 1423 1411 1410 1403 1398 1393 1379 1376 1379 1377 1380 1382 1381 1385 1390 1398 1406 1411 1417 1422
1498 1496 1495 1494 1494 1493 1492 1491 1488 1487 1484 1481 1483 1481 1473 1465 1460 1460 1461 1461 1459 1452 1449 1447 1437 1429 1425 1417 1409 1402 1399 1394 1382 1378 1381 1382 1382 1379 1376 1375 1374 1377 1378 1380 1381 1375 1379 1382 1366 1364 1373 1366 1363 1372 1375 1373 1377 1390 1400 1396 1391 1393 1398 1409 1423 1419 1419 1430 1418 1405 1408 1406 1408 1406 1386 1378 1383 1379 1378 1381 1381 1381 1385 1393 1400 1406 1413 1417
1498 1495 1493 1493 1493 1492 1491 1490 1487 1486 1483 1479 1480 1478 1473 1469 1466 1466 1466 1466 1465 1456 1453 1454 1444 1434 1434 1430 1423 1416 1416 1410 1392 1382 1382 1380 1378 1377 1376 1376 1371 1370 1371 1374 1378 1370 1369 1380 1367 1356 1367 1366 1360 1375 1384 1375 1369 1376 1383 1381 1389 1406 1410 1410 1422 1425 1425 1430 1419 1405 1402 1398 1399 1399 1387 1383 1385 1381 1378 1379 1380 1378 1380 1389 1397 1403 1410 1413
1498 1495 1492 1492 1493 1491 1489 1489 1487 1485 1480 1475 1475 1473 1471 1470 1467 1468 1469 1467 1465 1460 1455 1455 1450 1443 1440 1437 1433 1426 1424 1423 1408 1394 1389 1383 1382 1381 1381 1383 1377 1372 1371 1372 1376 1370 1366 1378 1372 1352 1353 1363 1365 1376 1387 1384 1375 1372 1374 1376 1383 1396 1403 1407 1411 1413 1418 1424 1421 1413 1408 1400 1386 1377 1378 1381 1378 1379 1380 1378 1378 1378 1379 1387 1394 1401 1406 1410
1501 1497 1492 1491 1492 1489 1488 1487 1483 1480 1475 1473 1474 1473 1472 1471 1469 1470 1470 1467 1466 1464 1459 1455 1453 1450 1445 1441 1440 1433 1428 1427 1420 1411 1401 1390 1389 1389 1386 1387 1386 1381 1377 1373 1373 1370 1366 1376 1376 1356 1348 1361 1368 1369 1374 1380 1380 1380 1382 1384 1385 1388 1391 1398 1401 1400 1406 1415 1417 1418 1416 1400 1374 1359 1365 1372 1370 1373 1377 1376 1376 1375 1378 1385 1391 1397 1403 1406
1502 1497 1491 1490 1490 1488 1487 1483 1476 1474 1474 1472 1473 1473 1473 1473 1471 1470 1468 1466 1467 1466 1462 1459 1457 1453 1450 1445 1442 1440 1436 1431 1426 1421 1408 1394 1394 1399 1394 1392 1391 1386 1382 1377 1374 1372 1369 1373 1375 1364 1356 1359 1360 1356 1360 1367 1371 1376 1381 1381 1382 1387 1391 1403 1408 1398 1396 1405 1407 1410 1413 1393 1363 1350 1355 1361 1363 1365 1369 1373 1373 1372 1374 1381 1387 1393 1398 1401
1502 1496 1491 1490 1489 1489 1487 1479 1471 1472 1475 1473 1472 1473 1473 1474 1472 1468 1467 1467 1467 1465 1462 1461 1461 1456 1453 1448 1444 1446 1445 1438 1432 1426 1413 1400 1399 1403 1400 1397 1395 1390 1387 1384 1376 1369 1368 1370 1372 1368 1358 1350 1348 1349 1354 1360 1361 1366 1373 1372 1373 1379 1386 1401 1411 1401 1395 1400 1396 1399 1407 1392 1363 1349 1351 1354 1357 1359 1364 1368 1369 1369 1372 1375 1381 1388 1392 1397
1502 1497 1491 1489 1489 1489 1486 1478 1473 1474 1474 1473 1474 1474 1472 1473 1472 1468 1468 1468 1466 1466 1464 1463 1462 1460 1455 1452 1451 1452 1450 1442 1436 1430 1419 1409 1405 1405 1404 1402 1399 1393 1391 1390 1383 1375 1374 1374 1373 1371 1358 1343 1340 1346 1350 1355 1359 1365 1368 1367 1368 1373 1376 1384 1391 1390 1394 1400 1398 1403 1410 1395 1368 1354 1353 1354 1355 1357 1362 1365 1367 1369 1371 1373 1377 1382 1386 1393
1505 1498 1491 1488 1488 1489 1486 1482 1481 1480 1477 1476 1476 1475 1472 1471 1471 1469 1468 1466 1464 1466 1467 1464 1462 1460 1456 1456 1455 1454 1453 1449 1440 1431 1424 1418 1415 1416 1413 1409 1405 1399 1396 1399 1396 1391 1389 1381 1375 1378 1379 1367 1357 1358 1361 1360 1361 1363 1363 1363 1365 1366 1369 1376 1378 1382 1393 1395 1393 1405 1411 1394 1372 1361 1358 1359 1359 1360 1362 1365 1367 1369 1371 1373 1374 1376 1382 1389
1506 1497 1490 1488 1490 1490 1487 1485 1485 1483 1480 1479 1477 1474 1472 1470 1469 1468 1467 1465 1465 1465 1466 1464 1462 1460 1458 1458 1457 1453 1453 1451 1443 1434 1432 1432 1430 1427 1421 1416 1411 1405 1401 1403 1400 1397 1397 1390 1382 1386 1391 1383 1370 1367 1368 1364 1362 1362 1358 1358 1364 1364 1367 1375 1379 1388 1397 1392 1387 1397 1401 1388 1375 1368 1365 1364 1364 1365 1364 1365 1367 1368 1371 1374 1373 1375 1379 1384
1509 1499 1492 1491 1491 1489 1487 1485 1484 1483 1482 1482 1480 1475 1473 1471 1469 1467 1467 1466 1465 1464 1464 1462 1462 1461 1459 1458 1458 1456 1452 1450 1445 1440 1440 1445 1442 1434 1427 1421 1414 1409 1406 1404 1399 1396 1395 1391 1385 1385 1383 1375 1367 1360 1353 1354 1361 1365 1360 1357 1361 1364 1364 1368 1379 1389 1391 1389 1390 1389 1387 1388 1384 1376 1373 1370 1368 1370 1369 1367 1369 1369 1371 1375 1375 1376 1380 1384
1511 1503 1498 1498 1495 1490 1487 1485 1486 1485 1484 1484 1482 1476 1473 1473 1469 1467 1466 1465 1465 1465 1463 1461 1460 1461 1460 1459 1459 1459 1455 1450 1448 1445 1446 1449 1445 1437 1431 1423 1416 1412 1408 1403 1398 1395 1395 1392 1384 1380 1376 1371 1368 1361 1349 1349 1357 1360 1359 1357 1357 1361 1364 1366 1375 1379 1378 1389 1397 1384 1378 1387 1387 1378 1377 1374 1372 1373 1370 1366 1369 1371 1373 1377 1379 1379 1382 1386
1514 1509 1505 1505 1501 1494 1490 1489 1488 1487 1484 1483 1481 1476 1475 1475 1471 1469 1467 1465 1465 1465 1463 1462 1460 1460 1460 1461 1460 1459 1456 1453 1451 1449 1450 1450 1446 1441 1434 1426 1420 1417 1412 1405 1398 1395 1398 1396 1384 1378 1375 1368 1366 1363 1355 1354 1355 1352 1353 1355 1353 1358 1364 1366 1370 1370 1371 1386 1392 1379 1376 1384 1380 1376 1376 1373 1370 1371 1368 1365 1368 1371 1374 1378 1380 1382 1384 1387
1517 1513 1509 1508 1505 1500 1495 1492 1488 1486 1484 1482 1479 1476 1478 1477 1472 1468 1466 1465 1465 1464 1463 1463 1462 1461 1460 1460 1460 1460 1458 1457 1455 1453 1452 1452 1450 1447 1442 1435 1427 1422 1419 1413 1403 1399 1400 1395 1384 1381 1378 1370 1367 1365 1359 1356 1356 1353 1351 1350 1350 1354 1359 1363 1367 1365 1367 1377 1378 1373 1379 1380 1373 1371 1371 1367 1365 1366 1365 1366 1369 1372 1375 1379 1382 1384 1384 1387
1520 1518 1513 1510 1507 1502 1497 1492 1489 1486 1484 1482 1480 1478 1478 1477 1473 1471 1469 1467 1466 1464 1465 1465 1463 1462 1462 1460 1460 1459 1457 1458 1459 1457 1455 1453 1452 1450 1448 1445 1437 1430 1427 1421 1412 1407 1404 1398 1387 1383 1384 1379 1371 1366 1361 1357 1358 1360 1355 1348 1346 1350 1355 1362 1365 1364 1367 1374 1373 1372 1380 1380 1369 1364 1364 1363 1364 1365 1366 1368 1370 1374 1378 1380 1383 1385 1384 1387
1522 1519 1517 1514 1508 1501 1497 1493 1490 1487 1483 1482 1482 1480 1477 1474 1474 1474 1470 1467 1468 1467 1468 1468 1464 1462 1462 1460 1459 1458 1456 1456 1457 1456 1454 1453 1453 1452 1449 1447 1444 1439 1434 1428 1421 1415 1411 1406 1395 1389 1391 1384 1372 1370 1367 1358 1359 1364 1361 1354 1351 1351 1353 1357 1361 1361 1364 1372 1375 1377 1383 1381 1368 1361 1364 1366 1367 1368 1370 1371 1373 1376 1378 1380 1382 1384 1384 1387
1520 1517 1516 1516 1509 1501 1498 1494 1491 1489 1485 1482 1481 1480 1478 1474 1471 1472 1471 1469 1469 1469 1468 1468 1467 1465 1463 1459 1458 1458 1456 1455 1454 1453 1453 1451 1451 1450 1448 1445 1445 1443 1438 1432 1427 1421 1416 1412 1404 1399 1398 1386 1373 1372 1368 1362 1371 1376 1366 1359 1356 1352 1350 1352 1356 1357 1358 1363 1373 1379 1379 1374 1366 1364 1368 1371 1371 1373 1374 1374 1377 1378 1379 1381 1381 1382 1384 1387